Starlink 30758

operational
NORAD ID: 58133 Int'l Des: 2023-162 Owner: SPXS Country: US Constellation: starlink
LEOCIRCULAR

关于 Starlink 30758

正在加载描述...

实时位置

正在加载3D地球...

即将过境

高度历史

Altitude vs Time

uPlot chart will show altitude changes over time

两行轨道根数

1 58133U 23162R 25258.58798355 -.00000208 00000-0 -33188-6 0 9997
2 58133 43.0047 4.2433 0001699 271.1318 88.9330 15.02535693105965
Epoch: Sep 15, 2025 • Age: 12 hours

当前状态

高度 561.3 km
速度 7.59 km/s
星下点 33.50°N, 113.83°E
发射日期 Oct 22, 2023
运行时间 1.9 years
类型 internet

技术详情

分类 Payload
质量 730.00 kg
干质量 700.00 kg
总质量 730.00 kg
长度 0.30 m
直径 4.10 m
跨度 29.00 m
形状 Box + pan
制造商 SPXS
平台类型 Starlink V2M
阶段状态 In Orbit
所有者/国家 SPXS/US

大型星座

Loading constellations...